�N����,����,�~����,�C��,���x,�C��,����,���ϕ���,�ő�u�ԕ���,�ő厞����,���˗�,�I�_���x,�n�����x,�ő啗���N��,DTYPE
"19/10/16","00:10",0.0,10.8,95.0,1019.9,317.0,1.7,2.5,335.5,0.00,10.1,17.8,"00:00:40",1
"19/10/16","00:20",0.0,10.9,95.2,1020.4,325.5,1.8,2.5,328.3,0.00,10.2,17.9,"00:19:30",1
"19/10/16","00:30",0.0,11.0,95.1,1020.1,327.9,1.8,3.7,319.3,0.00,10.3,17.8,"00:29:44",1
"19/10/16","00:40",0.0,11.1,94.9,1020.1,325.9,2.0,3.3,339.1,0.00,10.4,17.7,"00:37:24",1
"19/10/16","00:50",0.0,11.2,94.7,1020.4,327.2,2.5,4.3,337.6,0.00,10.4,17.6,"00:44:34",1
"19/10/16","01:00",0.0,11.4,94.2,1020.4,324.8,3.0,4.8,339.9,0.00,10.5,17.7,"00:50:40",1
"19/10/16","01:10",0.0,11.4,93.6,1020.1,327.7,2.3,4.9,331.2,0.00,10.4,17.7,"01:00:16",1
"19/10/16","01:20",0.0,11.1,94.0,1020.4,331.9,2.0,3.2,327.1,0.00,10.2,17.5,"01:10:08",1
"19/10/16","01:30",0.0,11.1,94.1,1020.4,335.5,2.1,3.2,335.7,0.00,10.2,17.5,"01:24:56",1
"19/10/16","01:40",0.0,11.2,93.9,1020.4,334.4,2.1,4.4,345.7,0.00,10.3,17.5,"01:32:42",1
"19/10/16","01:50",0.0,11.1,93.6,1020.4,329.7,2.1,3.1,340.2,0.00,10.1,17.6,"01:46:02",1
"19/10/16","02:00",0.0,11.1,93.5,1020.4,327.8,2.1,3.1,329.9,0.00,10.1,17.5,"01:56:12",1
"19/10/16","02:10",0.0,11.3,93.5,1020.4,328.8,2.5,3.6,342.8,0.00,10.3,17.3,"02:00:02",1
"19/10/16","02:20",0.0,11.3,92.8,1020.6,330.4,2.3,4.9,337.9,0.00,10.2,17.2,"02:10:40",1
"19/10/16","02:30",0.0,11.1,93.2,1020.4,320.3,1.8,3.1,316.2,0.00,10.1,17.4,"02:27:26",1
"19/10/16","02:40",0.0,11.1,92.9,1020.4,329.5,2.0,5.1,340.0,0.00,10.0,17.3,"02:37:24",1
"19/10/16","02:50",0.0,11.1,92.8,1020.1,326.4,2.1,3.4,332.6,0.00,10.0,17.2,"02:43:30",1
"19/10/16","03:00",0.0,11.2,92.4,1020.1,332.3,1.6,2.9,332.0,0.00,10.1,17.2,"02:52:16",1
"19/10/16","03:10",0.0,11.0,92.3,1019.9,343.5,1.6,2.7,335.8,0.00,9.8,17.3,"03:00:40",1
"19/10/16","03:20",0.0,11.1,92.2,1020.4,345.4,1.6,2.6,344.4,0.00,9.9,17.1,"03:12:52",1
"19/10/16","03:30",0.0,11.2,92.3,1019.9,336.3,2.2,5.0,325.7,0.00,10.0,17.2,"03:29:28",1
"19/10/16","03:40",0.0,11.4,91.6,1020.1,326.8,2.5,4.4,341.6,0.00,10.1,17.2,"03:39:20",1
"19/10/16","03:50",0.0,11.5,91.0,1019.9,330.6,2.6,4.2,342.3,0.00,10.1,17.1,"03:49:14",1
"19/10/16","04:00",0.0,11.3,90.6,1019.9,336.4,2.0,3.7,340.8,0.00,9.9,17.1,"03:51:16",1
"19/10/16","04:10",0.0,10.9,90.7,1019.9,342.5,1.6,2.8,340.6,0.00,9.5,17.0,"04:02:14",1
"19/10/16","04:20",0.0,10.7,90.7,1019.9,341.3,1.7,3.2,330.2,0.00,9.3,17.0,"04:17:54",1
"19/10/16","04:30",0.0,10.7,91.4,1020.1,334.4,2.1,4.7,330.2,0.00,9.4,17.0,"04:28:56",1
"19/10/16","04:40",0.0,11.0,90.9,1019.9,327.0,2.8,4.2,321.7,0.00,9.6,17.1,"04:32:50",1
"19/10/16","04:50",0.0,11.1,90.5,1019.9,327.5,2.8,5.5,315.2,0.00,9.6,16.9,"04:49:08",1
"19/10/16","05:00",0.0,11.2,90.1,1019.7,327.4,3.2,4.9,320.6,0.00,9.7,16.8,"04:54:36",1
"19/10/16","05:10",0.0,11.2,89.6,1019.9,326.4,2.8,4.9,335.3,0.00,9.6,16.9,"05:04:10",1
"19/10/16","05:20",0.0,11.1,89.7,1019.7,331.9,3.0,5.5,326.0,0.00,9.5,16.8,"05:19:58",1
"19/10/16","05:30",0.0,11.0,89.6,1019.9,328.0,3.0,4.2,330.3,0.00,9.4,16.9,"05:20:08",1
"19/10/16","05:40",0.0,11.0,89.3,1019.4,332.3,2.7,5.6,324.1,0.00,9.3,16.8,"05:35:28",1
"19/10/16","05:50",0.0,10.9,89.1,1019.7,341.7,1.7,3.7,344.2,0.00,9.2,16.7,"05:40:30",1
"19/10/16","06:00",0.0,10.7,89.3,1020.1,346.6,1.6,2.9,338.0,0.00,9.1,16.8,"05:50:16",1
"19/10/16","06:10",0.0,10.6,89.5,1019.7,345.4,1.5,2.8,338.6,0.00,9.0,16.6,"06:06:24",1
"19/10/16","06:20",0.0,10.4,90.0,1019.9,343.3,1.3,2.0,305.0,0.00,8.9,16.9,"06:18:26",1
"19/10/16","06:30",0.0,10.3,90.0,1019.9,344.3,1.3,2.9,324.6,0.00,8.8,16.7,"06:22:16",1
"19/10/16","06:40",0.0,10.2,90.4,1019.9,328.3,2.1,2.7,330.6,0.00,8.7,16.7,"06:36:24",1
"19/10/16","06:50",0.0,10.5,90.8,1020.4,329.6,2.6,4.1,329.9,0.00,9.1,16.8,"06:44:40",1
"19/10/16","07:00",0.0,10.7,90.7,1020.1,328.2,2.3,4.2,335.2,0.00,9.3,16.7,"06:58:02",1
"19/10/16","07:10",0.0,11.0,90.5,1020.1,325.9,2.3,3.9,324.4,0.00,9.5,16.7,"07:01:22",1
"19/10/16","07:20",0.0,11.2,90.2,1020.4,324.3,2.5,4.3,341.5,0.00,9.7,16.7,"07:10:56",1
"19/10/16","07:30",0.0,11.5,89.6,1020.1,329.2,2.3,3.5,332.1,0.01,9.9,16.4,"07:22:48",1
"19/10/16","07:40",0.0,12.1,88.2,1020.4,324.6,2.1,3.2,338.0,0.02,10.2,16.5,"07:32:56",1
"19/10/16","07:50",0.0,12.6,87.1,1020.6,326.9,1.6,2.7,326.7,0.04,10.6,16.7,"07:44:48",1
"19/10/16","08:00",0.0,12.7,86.5,1020.8,345.1,1.1,2.1,348.1,0.06,10.5,16.5,"07:56:56",1
"19/10/16","08:10",0.0,13.1,85.6,1020.8,336.4,1.0,1.9,331.5,0.08,10.8,16.7,"08:04:00",1
"19/10/16","08:20",0.0,13.2,84.5,1021.1,350.0,0.7,1.6,331.5,0.11,10.7,16.8,"08:17:12",1
"19/10/16","08:30",0.0,13.5,84.5,1021.3,98.4,0.5,1.3,137.6,0.13,11.0,16.8,"08:28:08",1
"19/10/16","08:40",0.0,14.1,82.9,1021.1,143.1,0.5,1.4,230.8,0.16,11.3,17.1,"08:39:28",1
"19/10/16","08:50",0.0,14.4,81.2,1021.3,235.1,0.7,1.6,230.1,0.19,11.3,17.0,"08:40:48",1
"19/10/16","09:00",0.0,15.0,78.6,1021.3,274.0,0.6,1.4,244.6,0.21,11.4,17.2,"08:56:00",1
"19/10/16","09:10",0.0,15.3,78.3,1021.5,185.5,0.6,1.2,222.8,0.24,11.6,17.1,"09:04:40",1
"19/10/16","09:20",0.0,15.1,76.9,1021.1,207.4,0.8,1.9,229.2,0.26,11.1,17.7,"09:15:12",1
"19/10/16","09:30",0.0,15.5,74.8,1020.8,153.9,0.7,2.0,127.6,0.29,11.1,17.8,"09:22:10",1
"19/10/16","09:40",0.0,16.0,74.5,1021.1,127.5,0.8,1.9,99.6,0.31,11.5,17.8,"09:33:04",1
"19/10/16","09:50",0.0,16.4,72.7,1020.6,102.8,1.1,2.5,88.1,0.33,11.5,18.2,"09:43:04",1
"19/10/16","10:00",0.0,16.6,70.0,1020.6,129.9,0.7,2.1,102.7,0.36,11.2,18.4,"09:57:52",1
"19/10/16","10:10",0.0,17.1,67.4,1020.4,81.2,0.8,1.9,336.8,0.38,11.1,18.6,"10:06:32",1
"19/10/16","10:20",0.0,17.8,66.9,1020.1,40.8,0.8,2.6,111.0,0.40,11.6,18.7,"10:14:00",1
"19/10/16","10:30",0.0,18.0,68.6,1020.1,135.9,1.0,2.5,135.5,0.42,12.2,19.0,"10:25:36",1
"19/10/16","10:40",0.0,18.0,66.8,1019.9,188.0,1.3,3.4,199.9,0.42,11.8,19.1,"10:38:32",1
"19/10/16","10:50",0.0,18.3,65.9,1019.9,142.9,1.1,2.1,36.8,0.37,11.9,19.4,"10:46:24",1
"19/10/16","11:00",0.0,17.9,66.1,1019.4,166.6,1.0,2.2,189.6,0.38,11.5,19.6,"10:53:12",1
"19/10/16","11:10",0.0,18.2,66.1,1019.4,174.2,1.3,2.7,199.3,0.40,11.8,19.6,"11:06:24",1
"19/10/16","11:20",0.0,18.5,63.8,1018.7,194.4,1.1,2.9,226.1,0.47,11.6,20.0,"11:16:32",1
"19/10/16","11:30",0.0,18.6,64.2,1018.7,208.8,1.2,3.1,216.8,0.47,11.8,19.9,"11:22:48",1
"19/10/16","11:40",0.0,18.9,61.8,1018.7,217.1,1.5,3.7,228.9,0.50,11.5,20.3,"11:33:04",1
"19/10/16","11:50",0.0,19.1,59.4,1018.0,130.5,1.2,2.7,48.3,0.50,11.0,20.4,"11:47:52",1
"19/10/16","12:00",0.0,19.0,59.7,1018.0,61.5,1.5,4.4,60.9,0.52,11.0,20.7,"11:57:36",1
"19/10/16","12:10",0.0,19.7,59.4,1017.8,51.1,1.2,3.7,344.9,0.56,11.6,20.8,"12:04:16",1
"19/10/16","12:20",0.0,19.9,60.6,1017.3,213.8,1.5,3.1,221.1,0.50,12.1,21.1,"12:12:16",1
"19/10/16","12:30",0.0,19.6,59.8,1017.3,189.0,1.7,3.7,227.9,0.52,11.6,21.1,"12:23:12",1
"19/10/16","12:40",0.0,20.2,60.4,1016.8,209.3,1.3,3.7,226.6,0.51,12.3,21.5,"12:31:36",1
"19/10/16","12:50",0.0,20.3,56.0,1016.8,200.4,0.8,2.7,109.9,0.50,11.3,21.6,"12:41:44",1
"19/10/16","13:00",0.0,20.2,56.2,1016.6,345.5,1.7,5.7,339.4,0.50,11.2,21.6,"12:53:52",1
"19/10/16","13:10",0.0,20.8,55.5,1016.6,249.6,0.6,1.8,333.4,0.49,11.6,21.9,"13:06:40",1
"19/10/16","13:20",0.0,20.5,53.3,1016.1,254.1,1.0,2.7,348.1,0.48,10.7,22.1,"13:17:20",1
"19/10/16","13:30",0.0,21.2,54.5,1016.1,32.4,1.2,3.4,346.0,0.47,11.7,22.2,"13:25:44",1
"19/10/16","13:40",0.0,21.0,52.8,1015.9,18.0,1.2,3.5,6.9,0.46,11.0,22.4,"13:37:04",1
"19/10/16","13:50",0.0,21.2,53.3,1015.9,348.0,1.6,4.4,327.0,0.45,11.4,22.5,"13:49:52",1
"19/10/16","14:00",0.0,21.1,51.7,1015.6,339.1,2.1,4.8,324.8,0.44,10.8,22.5,"13:51:28",1
"19/10/16","14:10",0.0,21.4,51.9,1016.1,14.7,1.7,3.7,333.5,0.42,11.2,22.4,"14:09:12",1
"19/10/16","14:20",0.0,21.5,52.7,1015.9,348.6,1.6,3.5,322.2,0.41,11.5,22.5,"14:10:02",1
"19/10/16","14:30",0.0,21.2,53.1,1016.1,347.9,1.8,3.7,336.3,0.39,11.3,22.6,"14:25:20",1
"19/10/16","14:40",0.0,21.1,53.0,1015.9,345.4,1.8,3.5,337.7,0.37,11.2,22.8,"14:37:36",1
"19/10/16","14:50",0.0,21.3,52.0,1015.9,359.1,1.7,3.5,32.3,0.35,11.1,22.8,"14:42:32",1
"19/10/16","15:00",0.0,21.0,55.0,1016.1,348.4,1.8,3.6,348.8,0.33,11.7,22.7,"14:58:16",1
"19/10/16","15:10",0.0,20.9,54.7,1015.6,349.9,2.2,4.8,1.3,0.31,11.5,22.7,"15:07:12",1
"19/10/16","15:20",0.0,20.7,56.1,1015.9,342.5,2.5,5.2,321.2,0.29,11.7,22.8,"15:13:52",1
"19/10/16","15:30",0.0,20.4,56.2,1016.4,342.5,2.7,5.9,346.3,0.26,11.4,22.7,"15:22:40",1
"19/10/16","15:40",0.0,20.3,57.5,1015.9,343.2,2.7,4.7,356.0,0.24,11.7,22.6,"15:34:08",1
"19/10/16","15:50",0.0,19.8,57.4,1015.9,337.2,2.6,7.5,336.4,0.21,11.2,22.4,"15:40:02",1
"19/10/16","16:00",0.0,19.7,57.9,1016.1,342.4,2.8,5.6,352.1,0.18,11.2,22.4,"15:52:56",1
"19/10/16","16:10",0.0,19.7,58.0,1016.4,342.0,2.6,5.7,338.3,0.16,11.3,22.4,"16:03:12",1
"19/10/16","16:20",0.0,19.7,56.0,1016.8,343.1,2.8,6.5,334.4,0.14,10.7,22.2,"16:19:52",1
"19/10/16","16:30",0.0,19.5,57.5,1016.6,341.4,2.3,5.7,338.6,0.10,10.9,22.0,"16:24:56",1
"19/10/16","16:40",0.0,18.9,58.2,1016.8,338.7,2.6,5.0,327.7,0.07,10.6,22.0,"16:30:40",1
"19/10/16","16:50",0.0,18.7,59.4,1016.8,347.0,2.8,6.7,343.5,0.08,10.7,21.7,"16:49:36",1
"19/10/16","17:00",0.0,18.2,61.1,1017.5,340.0,2.5,5.8,338.5,0.03,10.6,21.7,"16:50:32",1
"19/10/16","17:10",0.0,17.7,63.2,1017.5,337.0,3.1,7.0,338.9,0.02,10.7,21.6,"17:02:16",1
"19/10/16","17:20",0.0,17.4,64.2,1017.8,335.5,2.5,5.4,349.3,0.01,10.6,21.4,"17:11:12",1
"19/10/16","17:30",0.0,17.1,65.2,1017.8,336.6,2.8,6.3,340.2,0.00,10.6,21.2,"17:22:40",1
"19/10/16","17:40",0.0,16.8,66.6,1018.0,342.4,2.7,5.5,347.6,0.00,10.6,21.0,"17:31:12",1
"19/10/16","17:50",0.0,16.6,67.8,1017.8,342.3,3.1,6.0,340.1,0.00,10.7,21.0,"17:44:16",1
"19/10/16","18:00",0.0,16.3,68.8,1018.2,334.5,2.6,5.2,347.5,0.00,10.6,20.6,"17:56:56",1
"19/10/16","18:10",0.0,16.1,69.8,1018.2,336.6,2.6,5.9,350.0,0.00,10.6,20.7,"18:04:40",1
"19/10/16","18:20",0.0,15.9,70.8,1018.2,334.7,2.6,5.9,339.5,0.00,10.7,20.5,"18:12:16",1
"19/10/16","18:30",0.0,15.7,71.6,1018.2,331.6,2.3,4.2,353.4,0.00,10.6,20.2,"18:29:04",1
"19/10/16","18:40",0.0,15.6,72.4,1018.7,332.0,2.6,4.5,327.5,0.00,10.7,20.3,"18:32:48",1
"19/10/16","18:50",0.0,15.5,72.9,1018.7,330.4,2.5,4.3,317.2,0.00,10.7,20.0,"18:43:28",1
"19/10/16","19:00",0.0,15.3,73.3,1018.7,328.4,2.2,5.1,332.1,0.00,10.6,19.9,"18:52:32",1
"19/10/16","19:10",0.0,14.9,74.3,1018.7,284.9,1.0,2.5,323.6,0.00,10.4,19.8,"19:02:00",1
"19/10/16","19:20",0.0,14.4,76.2,1018.5,227.1,0.6,1.3,238.6,0.00,10.3,19.6,"19:16:32",1
"19/10/16","19:30",0.0,14.5,79.0,1018.7,241.8,1.3,3.1,236.5,0.00,10.9,19.7,"19:23:20",1
"19/10/16","19:40",0.0,14.4,79.4,1018.7,262.2,1.1,3.7,229.8,0.00,10.9,19.6,"19:38:00",1
"19/10/16","19:50",0.0,14.5,78.8,1018.7,267.2,1.5,3.2,245.8,0.00,10.9,19.4,"19:41:52",1
"19/10/16","20:00",0.0,14.4,78.9,1019.0,297.9,1.6,2.4,320.2,0.00,10.8,19.4,"19:53:28",1
"19/10/16","20:10",0.0,14.4,79.6,1019.2,318.3,2.1,3.6,319.2,0.00,11.0,19.3,"20:08:16",1
"19/10/16","20:20",0.0,14.3,79.7,1019.0,325.0,2.1,3.6,335.9,0.00,10.9,19.1,"20:10:48",1
"19/10/16","20:30",0.0,14.1,80.3,1019.2,331.3,2.0,3.7,329.7,0.00,10.8,18.7,"20:27:52",1
"19/10/16","20:40",0.0,14.1,80.6,1019.2,328.2,2.7,4.2,315.6,0.00,10.9,18.8,"20:33:46",1
"19/10/16","20:50",0.0,13.9,81.1,1019.4,330.9,2.3,3.6,343.9,0.00,10.8,19.1,"20:49:28",1
"19/10/16","21:00",0.0,13.8,81.7,1019.4,333.5,2.5,3.9,334.3,0.00,10.8,19.0,"20:58:18",1
"19/10/16","21:10",0.0,13.8,82.0,1019.4,328.7,2.7,4.0,328.2,0.00,10.8,19.1,"21:02:42",1
"19/10/16","21:20",0.0,13.6,82.3,1019.2,333.3,2.2,3.5,314.0,0.00,10.7,18.7,"21:12:22",1
"19/10/16","21:30",0.0,13.4,83.0,1019.4,333.9,2.1,3.2,348.2,0.00,10.6,18.7,"21:23:56",1
"19/10/16","21:40",0.0,13.3,83.7,1019.0,331.5,2.3,4.5,336.5,0.00,10.6,18.7,"21:37:44",1
"19/10/16","21:50",0.0,13.3,83.9,1019.0,330.5,2.2,3.6,311.8,0.00,10.7,18.6,"21:40:18",1
"19/10/16","22:00",0.0,13.2,84.1,1019.0,330.4,2.2,3.6,338.6,0.00,10.6,18.6,"21:50:10",1
"19/10/16","22:10",0.0,13.1,84.7,1019.0,326.3,2.2,3.7,334.8,0.00,10.6,18.7,"22:00:16",1
"19/10/16","22:20",0.0,12.9,85.0,1019.0,329.8,2.2,4.1,337.5,0.00,10.5,18.4,"22:14:44",1
"19/10/16","22:30",0.0,12.8,85.7,1018.7,327.7,2.3,3.5,331.5,0.00,10.5,18.3,"22:29:02",1
"19/10/16","22:40",0.0,12.9,85.8,1018.7,324.1,2.8,5.0,329.3,0.00,10.6,18.3,"22:33:52",1
"19/10/16","22:50",0.0,12.9,85.7,1018.7,328.3,2.7,5.7,336.7,0.00,10.6,18.1,"22:40:08",1
"19/10/16","23:00",0.0,12.8,85.9,1018.7,327.5,1.8,3.5,331.0,0.00,10.5,18.1,"22:53:04",1
"19/10/16","23:10",0.0,12.7,86.3,1018.7,337.1,2.0,4.8,331.4,0.00,10.5,18.2,"23:09:56",1
"19/10/16","23:20",0.0,12.8,86.3,1018.5,331.8,2.1,5.0,320.4,0.00,10.6,18.1,"23:13:42",1
"19/10/16","23:30",0.0,12.7,86.2,1019.0,329.0,2.3,4.5,336.8,0.00,10.5,18.1,"23:25:28",1
"19/10/16","23:40",0.0,12.6,86.4,1018.7,329.7,2.6,4.4,316.3,0.00,10.4,18.0,"23:32:24",1
"19/10/16","23:50",0.0,12.5,86.8,1019.2,341.6,2.2,3.7,336.8,0.00,10.4,18.1,"23:42:44",1
"19/10/16","24:00",0.0,12.4,87.1,1019.2,338.5,2.2,4.5,328.7,0.00,10.4,18.0,"23:53:32",1
